RH
9 8 7 7 7 7 8 8 10 14 19 26 35 42 46 49 96 98 92 90 97 98 86 82 80 80 69 62 71 89 94 82 75
8 8 8 8 8 8 9 10 12 17 24 34 41 45 45 46 50 81 83 78 67 55 45 60 70 61 54 48 53 64 74 65 54
8 8 10 11 10 9 9 10 14 20 28 35 39 42 42 45 50 52 54 49 81 48 85 87 67 51 84 88 92 85 72 79 67
9 12 13 13 12 11 10 11 18 25 32 36 37 37 37 36 38 42 84 79 83 98 88 80 75 68 68 81 78 91 93 97 97
12 15 15 15 14 13 12 13 19 26 31 31 30 31 32 31 32 40 58 90 97 95 97 99 99 94 94 95 96 97 87 81 40
14 16 16 16 16 16 15 16 20 23 27 29 30 28 26 26 24 37 90 94 97 98 96 96 97 96 90 86 84 64 51 29 27
16 16 17 17 17 17 18 19 20 22 23 27 31 29 27 26 26 68 85 98 96 57 44 36 61 58 50 40 32 32 38 58 54
17 18 18 20 21 21 22 23 23 24 25 26 28 27 26 28 29 47 68 94 94 84 79 76 73 72 70 67 52 40 32 28 24
17 19 19 20 22 24 25 24 24 26 26 26 26 26 27 30 30 38 47 77 93 91 73 68 67 63 66 59 33 23 21 18 17
17 18 19 19 21 23 26 26 26 27 27 26 28 28 30 33 34 37 38 38 48 47 54 40 39 39 54 68 54 34 33 31 33
18 18 20 19 20 21 25 29 28 28 29 28 30 31 32 36 38 40 36 33 30 27 24 18 20 31 48 52 44 36 36 34 34
20 21 22 20 20 23 25 27 30 31 31 31 32 33 36 38 42 38 31 29 22 18 21 26 27 27 30 32 33 35 34 35 36
23 23 25 23 23 24 26 28 30 33 32 29 32 34 36 42 39 31 26 19 18 25 27 26 26 26 27 28 29 33 33 34 35
25 26 27 26 25 25 26 27 30 32 31 29 31 36 42 41 32 29 23 23 27 27 26 25 25 25 25 25 27 30 35 38 42
27 29 29 28 29 27 27 29 26 27 32 31 36 42 45 34 33 31 28 30 29 27 25 25 24 24 24 25 25 27 30 36 50
30 33 32 30 35 32 29 29 25 27 36 36 45 50 46 41 40 36 33 32 31 27 26 26 25 25 25 25 26 26 28 31 47
35 36 36 34 32 33 34 33 25 26 35 38 41 50 51 50 50 45 39 37 35 33 33 29 27 26 26 27 27 28 30 32 54
42 43 41 40 36 32 33 35 32 23 28 30 35 41 45 49 52 51 48 45 43 42 40 30 28 28 28 28 29 30 31 29 42
48 50 49 47 42 38 35 34 33 27 22 22 28 21 23 35 35 44 48 48 47 45 32 29 29 28 30 32 31 23 16 14 23
57 60 57 56 48 42 39 37 31 26 24 23 22 20 19 20 21 26 31 34 31 29 28 29 30 32 28 24 18 14 15 13 13
Wind_Speed
10 10 9 8 8 8 8 9 9 11 12 13 13 12 11 12 14 13 10 8 6 3 3 5 6 4 4 4 2 1 2 4 4
11 11 10 9 9 10 10 10 11 12 13 13 12 11 10 10 10 9 6 3 3 5 6 6 1 2 4 3 3 4 5 5 7
12 11 10 10 10 11 11 11 12 13 13 12 11 10 8 8 7 6 4 1 8 16 17 10 7 7 10 8 7 7 10 8 8
13 12 11 11 11 11 11 11 13 13 13 11 10 9 9 9 9 9 11 9 18 16 10 13 12 12 8 5 8 11 11 11 13
14 13 12 11 11 10 10 11 12 13 12 10 9 10 9 9 9 9 8 14 12 11 14 16 15 12 10 9 6 6 6 10 15
15 14 12 11 10 10 10 10 11 11 11 11 10 10 10 10 10 11 12 11 12 11 10 8 8 7 5 2 3 7 11 12 12
15 14 13 11 10 10 10 10 11 10 10 10 10 10 11 10 10 12 12 12 10 9 8 9 5 3 2 5 7 8 9 11 12
16 14 13 11 10 10 10 10 9 9 9 9 9 9 9 10 10 12 10 11 12 12 12 11 10 9 9 8 8 9 10 11 12
16 15 13 12 11 9 10 9 9 9 9 9 8 9 9 9 10 10 9 11 12 11 10 10 10 10 10 9 10 11 11 13 13
16 14 12 11 11 10 9 9 10 9 9 9 9 9 9 9 10 10 8 8 8 8 9 8 8 9 10 11 11 12 13 14 14
16 15 13 11 11 10 10 9 10 10 10 9 9 8 9 9 9 9 8 6 6 7 6 6 7 8 9 10 11 13 14 15 16
16 15 14 12 11 11 10 10 10 10 10 10 10 10 9 9 8 8 6 6 6 6 5 6 7 8 9 11 13 14 15 16 17
17 15 14 13 12 11 11 11 11 11 10 10 11 11 9 8 8 6 6 6 6 4 4 5 7 9 10 12 14 16 17 17 18
16 15 14 13 12 12 11 12 11 11 11 11 11 11 10 8 6 6 5 5 4 3 4 7 10 12 13 15 16 16 17 18 19
18 16 14 13 12 12 12 12 12 11 11 11 11 10 9 7 6 5 4 3 1 3 6 9 12 15 16 18 18 18 18 18 19
18 16 14 13 12 11 11 12 11 13 13 12 11 9 8 6 5 4 3 2 2 5 9 12 15 18 19 20 21 21 20 20 19
17 15 13 12 11 11 12 11 13 13 14 11 10 8 7 8 7 6 5 5 5 7 11 15 18 20 22 22 22 22 22 21 20
16 14 13 12 12 11 11 11 11 12 14 11 6 5 5 9 9 9 8 8 9 11 14 17 20 21 22 24 24 25 25 25 24
16 13 12 11 11 11 11 10 11 9 9 11 10 7 5 5 4 7 9 10 10 13 16 19 20 22 24 25 25 27 28 28 27
15 12 11 10 10 10 10 10 10 10 10 8 7 6 4 4 4 4 6 6 9 14 17 19 21 23 25 24 29 31 30 31 31
Wind_Direction
161 158 154 155 152 142 140 138 136 132 139 132 131 135 139 142 144 141 146 165 152 111 192 221 233 263 323 348 337 17 338 313 301
155 151 149 144 138 131 130 130 128 132 132 133 134 134 138 142 156 165 171 198 277 283 287 250 214 313 334 353 339 332 4 317 299
151 147 142 139 133 129 132 132 131 133 136 138 139 142 143 144 148 153 137 99 72 76 66 54 50 75 86 65 43 16 4 4 343
151 147 144 140 133 131 131 126 127 131 132 133 133 132 127 125 124 125 106 102 86 74 71 58 66 65 95 85 36 49 42 32 29
154 149 146 140 134 131 128 125 128 131 132 132 128 123 122 122 125 124 109 101 103 99 100 94 92 88 83 91 101 68 20 2 355
158 154 149 146 141 136 131 129 129 130 132 129 122 117 115 114 118 114 102 96 93 87 114 113 109 97 114 107 332 347 345 354 360
159 155 154 151 147 143 139 134 130 130 130 128 121 116 111 111 114 105 97 95 91 90 88 79 101 80 15 353 10 14 10 9 6
161 158 155 150 144 142 137 136 134 132 132 131 125 118 112 110 115 117 118 92 86 81 78 76 72 61 50 39 25 17 11 5 2
166 163 158 153 149 149 146 144 143 140 136 132 130 124 116 111 111 112 110 100 92 83 73 66 58 51 45 32 20 12 6 5 1
168 164 161 158 157 156 155 151 149 146 141 138 134 128 121 115 114 116 110 101 92 80 77 68 59 48 38 27 14 3 356 352 348
170 167 164 163 160 159 157 154 151 150 144 143 139 134 128 122 119 117 114 105 92 88 81 71 54 39 28 13 358 352 347 344 339
173 170 165 165 164 160 158 158 156 155 150 149 145 143 136 130 127 124 116 110 100 94 75 55 32 16 5 356 352 346 344 341 337
176 171 167 164 163 161 160 159 161 158 151 152 148 147 143 140 138 129 120 115 111 90 51 20 5 358 353 348 348 345 342 340 337
175 173 168 164 163 163 161 163 164 162 156 152 148 149 148 149 145 136 130 127 110 59 12 357 354 350 347 346 345 343 340 337 335
174 173 169 166 167 166 164 166 163 166 162 155 151 151 154 154 151 148 146 141 71 5 352 348 345 344 342 340 339 337 334 331 330
175 173 171 165 163 165 164 168 168 167 165 160 154 157 166 174 180 185 191 235 305 331 336 337 338 337 336 334 332 331 329 325 325
175 173 170 166 165 167 168 170 171 172 173 177 167 173 191 207 213 222 232 258 283 307 324 332 333 332 330 328 328 326 324 323 323
175 172 169 168 164 167 171 175 180 180 182 183 184 175 191 193 216 229 242 259 274 297 318 326 327 327 325 323 323 322 320 317 316
173 174 169 169 168 167 170 175 181 183 189 191 209 218 192 178 183 226 245 260 274 298 314 320 323 323 322 321 319 318 318 317 315
169 172 169 170 171 167 166 170 174 178 186 197 197 189 186 207 215 212 241 263 288 302 312 318 321 322 321 320 320 321 321 320 319